Weather History for Darwin Airport, Northern Territory

Change the Weather History Date:

Sunday, May 12, 2013

  Actual Average Record
Temperature  
Mean Temperature 84 °F -  
Max Temperature 93 °F 89 °F - ()
Min Temperature 76 °F 70 °F - ()
Cooling Degree Days 20    
Growing Degree Days 34 (Base 50)    
Moisture  
Dew Point 72 °F    
Average Humidity 68    
Maximum Humidity 94    
Minimum Humidity 29    
Precipitation  
Precipitation 0.00 in 0.02 in - ()
Sea Level Pressure  
Sea Level Pressure 29.86 in    
Wind  
Wind Speed 8 mph ()    
Max Wind Speed 16 mph    
Max Gust Speed -    
Visibility 9.8 miles    
Events      
T = Trace of Precipitation, MM = Missing Value Source: Averaged Metar Reports

Daily Weather History Graph

Daily Weather History Graph

Search for Another Location

Airport:

Trip Planner

Search our weather history database for the weather conditions in past years. The results will help you decide how hot, cold, wet, or windy it might be!

Date:

Astronomy

May. 12, 2013 Rise Set
Actual Time 6:55 AM ACST 6:29 PM ACST
Civil Twilight 6:33 AM ACST 6:51 PM ACST
Nautical Twilight 6:07 AM ACST 7:17 PM ACST
Astronomical Twilight 5:42 AM ACST 7:43 PM ACST
Moon 8:32 AM ACST (5/12) 8:17 PM ACST (5/12)
Length of Visible Light 12h 18m
Length of Day
11h 34m
Waxing Crescent, 4% of the Moon is Illuminated
May 12
Waxing Crescent
May 18
First Quarter
May 25
Full
Jun 1
Last Quarter
Jun 9
New

Hourly Weather History & Observations

Time (ACST) Temp. Heat Index Dew Point Humidity Pressure Visibility Wind Dir Wind Speed Gust Speed Precip Events Conditions
12:00 AM 80 °F - 75 °F 81% 29.86 in 19 mi NE 6.9 mph - -   Partly Cloudy
12:00 AM 80.6 °F 86.2 °F 75.2 °F 84% 29.86 in - NE 6.9 mph - N/A   Clear
12:30 AM 80 °F - 75 °F 79% 29.85 in - ENE 6.9 mph - -  
12:30 AM 80.6 °F 86.2 °F 75.2 °F 84% 29.86 in - ENE 6.9 mph - N/A   Clear
1:00 AM 80.6 °F 86.2 °F 75.2 °F 84% 29.86 in - ENE 5.8 mph - N/A   Clear
1:30 AM 78.8 °F - 75.2 °F 89% 29.86 in - East 5.8 mph - N/A   Clear
2:00 AM 78.8 °F - 75.2 °F 89% 29.86 in - East 4.6 mph - N/A   Clear
2:30 AM 78.8 °F - 75.2 °F 89% 29.83 in - ESE 3.5 mph - N/A   Clear
3:00 AM 79 °F - 74 °F 82% 29.85 in 19 mi South 4.6 mph - -   Partly Cloudy
3:00 AM 78.8 °F - 75.2 °F 89% 29.86 in - South 4.6 mph - N/A   Clear
3:30 AM 79 °F - 75 °F 83% 29.85 in - South 4.6 mph - -  
3:30 AM 78.8 °F - 75.2 °F 89% 29.83 in - South 4.6 mph - N/A   Clear
4:00 AM 78.8 °F - 75.2 °F 89% 29.83 in 6.2 mi SSE 5.8 mph - N/A   Scattered Clouds
4:30 AM 78.8 °F - 75.2 °F 89% 29.83 in 6.2 mi SSE 6.9 mph - N/A   Partly Cloudy
5:00 AM 77.0 °F - 75.2 °F 94% 29.83 in 6.2 mi SE 6.9 mph - N/A   Scattered Clouds
5:30 AM 77.0 °F - 73.4 °F 89% 29.83 in 6.2 mi SE 6.9 mph - N/A   Partly Cloudy
6:00 AM 77.0 °F - 73.4 °F 89% 29.83 in 6.2 mi SE 8.1 mph - N/A   Partly Cloudy
6:30 AM 77 °F - 74 °F 87% 29.85 in - SE 6.9 mph - -  
6:30 AM 77.0 °F - 73.4 °F 89% 29.86 in 6.2 mi SE 6.9 mph - N/A   Partly Cloudy
7:00 AM 77.0 °F - 73.4 °F 89% 29.86 in 6.2 mi ESE 5.8 mph - N/A   Partly Cloudy
7:30 AM 78.8 °F - 75.2 °F 89% 29.86 in - ESE 6.9 mph - N/A   Clear
8:00 AM 80.6 °F 85.4 °F 73.4 °F 79% 29.86 in - East 8.1 mph - N/A   Clear
8:30 AM 82.4 °F 88.2 °F 73.4 °F 74% 29.89 in 6.2 mi East 11.5 mph - N/A   Partly Cloudy
9:00 AM 83 °F - 73 °F 65% 29.89 in 19 mi East 13.8 mph - -   Partly Cloudy
9:00 AM 82.4 °F 88.2 °F 73.4 °F 74% 29.89 in - East 13.8 mph - N/A   Clear
9:30 AM 85 °F - 73 °F 59% 29.90 in - East 13.8 mph - -  
9:30 AM 86.0 °F 93.4 °F 73.4 °F 66% 29.89 in 6.2 mi East 13.8 mph - N/A   Partly Cloudy
10:00 AM 86.0 °F 91.8 °F 71.6 °F 62% 29.89 in 6.2 mi ENE 13.8 mph - N/A   Scattered Clouds
10:30 AM 87.8 °F 93.8 °F 71.6 °F 58% 29.89 in 6.2 mi ENE 11.5 mph - N/A   Partly Cloudy
11:00 AM 87.8 °F 93.8 °F 71.6 °F 58% 29.89 in 6.2 mi ENE 15.0 mph - N/A   Partly Cloudy
11:30 AM 87.8 °F 91.4 °F 68.0 °F 52% 29.89 in 6.2 mi East 12.7 mph - N/A   Partly Cloudy
12:00 PM 89 °F - 68 °F 41% 29.88 in 19 mi East 10.4 mph - -   Partly Cloudy
12:00 PM 87.8 °F 91.4 °F 68.0 °F 52% 29.89 in 6.2 mi East 10.4 mph - N/A   Partly Cloudy
12:30 PM 90 °F - 65 °F 34% 29.87 in - ENE 12.7 mph - -  
12:30 PM 91.4 °F 93.2 °F 64.4 °F 41% 29.86 in 6.2 mi ENE 12.7 mph - N/A   Partly Cloudy
1:00 PM 91.4 °F 94.0 °F 66.2 °F 43% 29.86 in 6.2 mi East 12.7 mph - N/A   Partly Cloudy
1:30 PM 91.4 °F 94.0 °F 66.2 °F 43% 29.86 in 6.2 mi East 8.1 mph - N/A   Partly Cloudy
2:00 PM 91.4 °F 93.2 °F 64.4 °F 41% 29.83 in - East 9.2 mph - N/A   Clear
2:30 PM 91.4 °F 92.1 °F 62.6 °F 38% 29.83 in - East 6.9 mph - N/A   Clear
3:00 PM 92 °F - 64 °F 29% 29.83 in 19 mi East 8.1 mph - -   Partly Cloudy
3:00 PM 91.4 °F 93.2 °F 64.4 °F 41% 29.83 in - East 8.1 mph - N/A   Clear
3:30 PM 91 °F - 65 °F 32% 29.82 in - ESE 8.1 mph - -  
3:30 PM 91.4 °F 93.2 °F 64.4 °F 41% 29.80 in - ESE 8.1 mph - N/A   Clear
4:00 PM 93.2 °F 94.9 °F 64.4 °F 38% 29.80 in - East 8.1 mph - N/A   Clear
4:30 PM 89.6 °F 96.2 °F 71.6 °F 55% 29.80 in - NNE 15.0 mph - N/A   Clear
5:00 PM 87.8 °F 93.8 °F 71.6 °F 58% 29.80 in - NNE 16.1 mph - N/A   Clear
5:30 PM 87.8 °F 93.8 °F 71.6 °F 58% 29.83 in - NNE 12.7 mph - N/A   Clear
6:00 PM 86 °F - 71 °F 53% 29.83 in 19 mi NNE 12.7 mph - -   Partly Cloudy
6:00 PM 86.0 °F 91.8 °F 71.6 °F 62% 29.83 in - NNE 12.7 mph - N/A   Clear
6:30 PM 85 °F - 71 °F 55% 29.84 in - NNE 11.5 mph - -  
6:30 PM 84.2 °F 89.6 °F 71.6 °F 66% 29.83 in - NNE 11.5 mph - N/A   Clear
7:00 PM 84.2 °F 89.6 °F 71.6 °F 66% 29.86 in - NE 11.5 mph - N/A   Clear
7:30 PM 84.2 °F 89.6 °F 71.6 °F 66% 29.86 in - NE 9.2 mph - N/A   Clear
8:00 PM 82.4 °F 87.2 °F 71.6 °F 70% 29.86 in - NE 8.1 mph - N/A   Clear
8:30 PM 82.4 °F 88.2 °F 73.4 °F 74% 29.86 in - NE 6.9 mph - N/A   Clear
9:00 PM 81 °F - 73 °F 70% 29.88 in 16 mi NE 6.9 mph - -   Haze
9:00 PM 80.6 °F 85.4 °F 73.4 °F 79% 29.89 in - NE 6.9 mph - N/A   Clear
9:30 PM 80 °F - 73 °F 74% 29.89 in - NE 6.9 mph - -  
9:30 PM 80.6 °F 85.4 °F 73.4 °F 79% 29.89 in - NE 6.9 mph - N/A   Clear
10:00 PM 80.6 °F 85.4 °F 73.4 °F 79% 29.89 in - NE 8.1 mph - N/A   Clear
10:30 PM 80.6 °F 85.4 °F 73.4 °F 79% 29.89 in - NE 5.8 mph - N/A   Clear
11:00 PM 80.6 °F 85.4 °F 73.4 °F 79% 29.89 in - SSE 4.6 mph - N/A   Clear
11:30 PM 80.6 °F 85.4 °F 73.4 °F 79% 29.89 in - SSE 2.3 mph - N/A   Clear